{"data":{"norad_id":63421,"intl_designator":"2025-065Y","name":"STARLINK-33606","alt_names":[],"object_type":"PAYLOAD","status":"ACTIVE","operator":null,"country":"US","launch_date":"2025-03-31","launch_site_code":"AFETR","launch_vehicle":null,"mission":null,"orbit_class":"UNKNOWN","rcs_meters":null,"size_class":null,"mass_kg":null,"dimensions":null,"purposes":["comms"],"wikipedia_slug":null,"has_3d_model":false,"image_url":null,"decayed_at":null,"tle_current":{"epoch":"2026-05-25T01:57:38.388384Z","epoch_age_seconds":61988,"freshness":"FRESH","line1":"1 63421U 25065Y   26145.08169431  .00024911  00000+0  91146-3 0  9994","line2":"2 63421  43.0057  35.5480 0001589 270.6638  89.4032 15.27589504 64526","mean_motion":15.27589504,"eccentricity":0.0001589,"inclination_deg":43.0057,"raan_deg":35.548,"arg_perigee_deg":270.6638,"mean_anomaly_deg":89.4032,"bstar":0.00091146,"rev_number":6452,"period_min":94.266162226786,"perigee_km":481.93039984351,"apogee_km":484.1108757408,"semimajor_km":6861.1576377922,"source":"CELESTRAK","updated_at":"2026-05-25T13:38:19.973535Z"}}}